UKV65DN UAAA-EGSS

Flight info

Callsign UKV65DN
Flight time 8h 13m
Altitude 30000
Route AA008 DCT AA009 DCT AA010 DCT AA014 DCT AA030 DCT AA032 DCT EKLAT DCT AGLEK DCT DEKED DCT TOMGO DCT RISAS DCT KUGIR DCT GAMBU DCT TUROK DCT REMOL DCT LUKUR DCT DIKAM DCT KZO DCT GIGUR DCT NATUS DCT UNITO/K0904F320 DCT TUKNA DCT OLINA DCT MILSO DCT DIVNO DCT MASAV DCT BODSI DCT DOGEL DCT GIGRI DCT AKT DCT ITAKA DCT KZ DCT RESLO DCT ULNAS DCT GUBOR DCT BINOL DCT PROZR DCT LAMET DCT UNAMI DCT DIRUN DCT KEPOL DCT DEMED DCT ODIRA/N0481F320 DCT EVKAM DCT SIN DCT SUNUM DCT INB DCT MIMTO DCT HAKAN DCT GUMRU DCT PAZAR DCT VADEN/N0476F340 DCT OGOTA DCT DOLAP DCT OBLAK DCT RAVAK DCT VAL DCT DIMSI DCT SOMUN DCT DER DCT GUBOK DCT MOSAV DCT ZAG DCT MAGAM DCT TIBRO DCT EKPEB DCT ATRIG DCT SOTOV DCT NIGEB DCT MOGTI DCT NESES DCT KPT DCT KUNOD DCT TEDGO DCT LAMGO DCT KRH DCT NOSPA DCT LIRSU DCT BATTY DCT TERLA DCT SOGRI DCT BUB DCT DENUT DCT LUMEN DCT BULAM DCT TOSVA DCT IDESI DCT LAPRA DCT ABBOT
Aircraft B77L/H-SDE3FGHIJ2J5LM1ORVWXY/SB1D1

Departure

Time 2026-04-20 09:19
Airport Almaty International Airport (UAAA)

Arrival

Time 2026-04-20 17:33
Airport London Stansted Airport (EGSS)
Time Latitude Longitude Altitude Speed Heading
2026-04-20 08:57 43.35121 77.01855 2236 ft 0 kts
2026-04-20 09:13 43.35113 77.01854 2236 ft 4 kts
2026-04-20 09:13 43.35087 77.01853 2231 ft 4 kts
2026-04-20 09:13 43.35060 77.01847 2236 ft 4 kts 13°
2026-04-20 09:14 43.35034 77.01836 2236 ft 4 kts 23°
2026-04-20 09:14 43.35026 77.01831 2233 ft 1 kts 24°
2026-04-20 09:16 43.35034 77.01841 2236 ft 6 kts 41°
2026-04-20 09:16 43.35035 77.01918 2231 ft 9 kts 114°
2026-04-20 09:17 43.35012 77.01998 2234 ft 9 kts 103°
2026-04-20 09:17 43.35009 77.02110 2236 ft 15 kts 81°
2026-04-20 09:17 43.34978 77.02224 2231 ft 15 kts 127°
2026-04-20 09:17 43.34890 77.02349 2227 ft 21 kts 141°
2026-04-20 09:18 43.34781 77.02475 2237 ft 17 kts 137°
2026-04-20 09:18 43.34780 77.02620 2234 ft 17 kts 58°
2026-04-20 09:18 43.34872 77.02807 2232 ft 33 kts 56°
2026-04-20 09:18 43.35101 77.03265 2238 ft 89 kts 56°
2026-04-20 09:19 43.35561 77.04190 2236 ft 147 kts 55°
2026-04-20 09:19 43.36235 77.05538 2247 ft 192 kts 55°
2026-04-20 09:19 43.37003 77.07102 2637 ft 193 kts 56°
2026-04-20 09:19 43.37739 77.08584 3229 ft 188 kts 57°
2026-04-20 09:20 43.38468 77.10074 3741 ft 190 kts 56°
2026-04-20 09:20 43.39229 77.11617 3979 ft 205 kts 56°
2026-04-20 09:20 43.40076 77.13302 4132 ft 224 kts 52°
2026-04-20 09:20 43.41380 77.14588 4191 ft 245 kts 13°
2026-04-20 09:21 43.43122 77.14501 4456 ft 260 kts 342°
2026-04-20 09:21 43.44857 77.13679 4896 ft 268 kts 344°
2026-04-20 09:21 43.46666 77.12944 5494 ft 273 kts 346°
2026-04-20 09:21 43.48519 77.12248 6147 ft 277 kts 345°
2026-04-20 09:22 43.50400 77.11555 6806 ft 280 kts 343°
2026-04-20 09:22 43.52235 77.10733 7491 ft 277 kts 329°
2026-04-20 09:22 43.53643 77.08984 8019 ft 275 kts 297°
2026-04-20 09:22 43.54261 77.06522 8648 ft 271 kts 275°
2026-04-20 09:23 43.54391 77.03956 9265 ft 272 kts 271°
2026-04-20 09:23 43.54484 77.01345 9989 ft 272 kts 271°
2026-04-20 09:23 43.54580 76.98718 10494 ft 281 kts 271°
2026-04-20 09:23 43.54493 76.95960 10590 ft 298 kts 256°
2026-04-20 09:24 43.53780 76.93189 10764 ft 317 kts 243°
2026-04-20 09:24 43.52607 76.90505 10930 ft 338 kts 237°
2026-04-20 09:24 43.51228 76.87788 11271 ft 352 kts 235°
2026-04-20 09:24 43.49787 76.85018 11827 ft 360 kts 235°
2026-04-20 09:25 43.48328 76.82183 12468 ft 365 kts 236°
2026-04-20 09:25 43.46866 76.79301 13188 ft 368 kts 236°
2026-04-20 09:25 43.45403 76.76387 13882 ft 372 kts 236°
2026-04-20 09:25 43.43932 76.73436 14476 ft 376 kts 237°
2026-04-20 09:26 43.42447 76.70448 15097 ft 380 kts 237°
2026-04-20 09:26 43.40970 76.67473 15705 ft 383 kts 237°
2026-04-20 09:26 43.39460 76.64437 16303 ft 386 kts 237°
2026-04-20 09:26 43.37932 76.61369 16895 ft 390 kts 237°
2026-04-20 09:27 43.36395 76.58269 17466 ft 394 kts 237°
2026-04-20 09:27 43.34848 76.55137 18063 ft 398 kts 237°
2026-04-20 09:27 43.33287 76.51974 18597 ft 402 kts 237°
2026-04-20 09:27 43.31708 76.48785 19019 ft 407 kts 238°
2026-04-20 09:28 43.30100 76.45539 19373 ft 414 kts 239°
2026-04-20 09:28 43.28655 76.42130 19764 ft 414 kts 250°
2026-04-20 09:28 43.27772 76.38388 20220 ft 412 kts 261°
2026-04-20 09:28 43.27388 76.34504 20749 ft 408 kts 272°
2026-04-20 09:29 43.27406 76.30602 21207 ft 411 kts 274°
2026-04-20 09:29 43.27441 76.26667 21690 ft 414 kts 274°
2026-04-20 09:29 43.27457 76.22704 22196 ft 417 kts 274°
2026-04-20 09:29 43.27458 76.18711 22692 ft 420 kts 274°
2026-04-20 09:30 43.27450 76.14693 23210 ft 422 kts 275°
2026-04-20 09:30 43.27436 76.10656 23673 ft 425 kts 276°
2026-04-20 09:30 43.27427 76.06585 24069 ft 426 kts 277°
2026-04-20 09:30 43.27623 76.02542 24434 ft 425 kts 283°
2026-04-20 09:31 43.28097 75.98537 24828 ft 424 kts 287°
2026-04-20 09:31 43.28840 75.94635 25235 ft 422 kts 292°
2026-04-20 09:31 43.29686 75.90820 25612 ft 425 kts 292°
2026-04-20 09:31 43.30544 75.86919 25987 ft 428 kts 292°
2026-04-20 09:32 43.31400 75.82994 26348 ft 431 kts 291°
2026-04-20 09:32 43.32258 75.79023 26717 ft 434 kts 291°
2026-04-20 09:32 43.33113 75.75042 27040 ft 436 kts 291°
2026-04-20 09:32 43.33971 75.71022 27376 ft 440 kts 291°
2026-04-20 09:33 43.34831 75.66984 27704 ft 443 kts 291°
2026-04-20 09:33 43.35699 75.62899 28067 ft 445 kts 291°
2026-04-20 09:33 43.36555 75.58868 28406 ft 447 kts 291°
2026-04-20 09:33 43.37428 75.54752 28729 ft 449 kts 291°
2026-04-20 09:34 43.38268 75.50604 29024 ft 453 kts 290°
2026-04-20 09:34 43.39062 75.46398 29315 ft 456 kts 289°
2026-04-20 09:34 43.40614 75.37914 29964 ft 457 kts 289°
2026-04-20 09:35 43.42181 75.29380 30046 ft 459 kts 289°
2026-04-20 09:35 43.43744 75.20908 30038 ft 454 kts 289°
2026-04-20 09:36 43.45299 75.12486 30055 ft 454 kts 289°
2026-04-20 09:36 43.46843 75.04093 29992 ft 455 kts 289°
2026-04-20 09:37 43.48389 74.95636 30030 ft 456 kts 289°
2026-04-20 09:37 43.49933 74.87154 30047 ft 456 kts 289°
2026-04-20 09:38 43.51470 74.78668 30039 ft 457 kts 289°
2026-04-20 09:38 43.52994 74.70158 30034 ft 457 kts 289°
2026-04-20 09:39 43.54509 74.61626 30038 ft 457 kts 289°
2026-04-20 09:39 43.56015 74.53115 30034 ft 457 kts 289°
2026-04-20 09:40 43.57507 74.44647 30028 ft 457 kts 289°
2026-04-20 09:40 43.59004 74.36118 30033 ft 457 kts 289°
2026-04-20 09:41 43.60492 74.27600 30024 ft 456 kts 289°
2026-04-20 09:41 43.61973 74.19087 30013 ft 456 kts 289°
2026-04-20 09:42 43.63452 74.10578 30015 ft 456 kts 289°
2026-04-20 09:42 43.64927 74.02069 30019 ft 456 kts 289°
2026-04-20 09:43 43.66394 73.93551 30016 ft 456 kts 288°
2026-04-20 09:43 43.67858 73.85019 30022 ft 457 kts 288°
2026-04-20 09:44 43.69320 73.76457 30013 ft 458 kts 288°
2026-04-20 09:44 43.70746 73.67859 30002 ft 459 kts 287°
2026-04-20 09:45 43.72115 73.59297 30007 ft 459 kts 287°
2026-04-20 09:45 43.73488 73.50653 30007 ft 460 kts 287°
2026-04-20 09:46 43.74863 73.42001 30009 ft 461 kts 287°
2026-04-20 09:46 43.76238 73.33319 30007 ft 462 kts 287°
2026-04-20 09:47 43.77607 73.24639 30008 ft 461 kts 285°
2026-04-20 09:47 43.78970 73.15948 30009 ft 462 kts 285°
2026-04-20 09:48 43.80324 73.07260 30006 ft 462 kts 285°
2026-04-20 09:48 43.81663 72.98630 30004 ft 462 kts 285°
2026-04-20 09:49 43.83004 72.89943 30006 ft 461 kts 285°
2026-04-20 09:49 43.84336 72.81259 29995 ft 461 kts 284°
2026-04-20 09:50 43.85449 72.73973 29998 ft 460 kts 284°
2026-04-20 09:50 43.86761 72.65342 30000 ft 461 kts 284°
2026-04-20 09:51 43.88075 72.56649 30001 ft 461 kts 284°
2026-04-20 09:51 43.89384 72.47941 29997 ft 461 kts 284°
2026-04-20 09:52 43.90685 72.39239 29994 ft 461 kts 284°
2026-04-20 09:52 43.91981 72.30523 29998 ft 461 kts 284°
2026-04-20 09:53 43.93264 72.21847 29990 ft 461 kts 283°
2026-04-20 09:53 43.94547 72.13117 29996 ft 462 kts 283°
2026-04-20 09:54 43.95825 72.04380 29999 ft 462 kts 283°
2026-04-20 09:54 43.97097 71.95629 29994 ft 462 kts 283°
2026-04-20 09:55 43.98363 71.86880 29992 ft 462 kts 283°
2026-04-20 09:55 43.99617 71.78129 29990 ft 462 kts 283°
2026-04-20 09:56 44.00866 71.69361 29989 ft 463 kts 282°
2026-04-20 09:56 44.02101 71.60641 29989 ft 463 kts 282°
2026-04-20 09:57 44.03337 71.51867 29984 ft 463 kts 282°
2026-04-20 09:57 44.04568 71.43082 29987 ft 463 kts 282°
2026-04-20 09:58 44.05792 71.34289 29990 ft 463 kts 282°
2026-04-20 09:58 44.07010 71.25487 29985 ft 463 kts 282°
2026-04-20 09:59 44.08221 71.16684 29985 ft 463 kts 282°
2026-04-20 09:59 44.09427 71.07871 29981 ft 463 kts 281°
2026-04-20 10:00 44.10617 70.99124 29987 ft 463 kts 281°
2026-04-20 10:00 44.11812 70.90297 29986 ft 464 kts 281°
2026-04-20 10:01 44.13003 70.81475 29984 ft 464 kts 281°
2026-04-20 10:01 44.14189 70.72630 29983 ft 464 kts 281°
2026-04-20 10:02 44.15366 70.63796 29985 ft 464 kts 281°
2026-04-20 10:02 44.16537 70.54947 29983 ft 464 kts 281°
2026-04-20 10:03 44.17702 70.46102 29984 ft 464 kts 281°
2026-04-20 10:03 44.18853 70.37313 29984 ft 464 kts 281°
2026-04-20 10:04 44.20013 70.28469 29976 ft 464 kts 280°
2026-04-20 10:04 44.21170 70.19622 29982 ft 464 kts 280°
2026-04-20 10:05 44.22320 70.10754 29984 ft 465 kts 280°
2026-04-20 10:05 44.23464 70.01880 29981 ft 465 kts 280°
2026-04-20 10:06 44.24602 69.92988 29981 ft 465 kts 279°
2026-04-20 10:06 44.25733 69.84099 29979 ft 465 kts 279°
2026-04-20 10:07 44.26855 69.75219 29975 ft 464 kts 279°
2026-04-20 10:07 44.27959 69.66423 29977 ft 463 kts 279°
2026-04-20 10:08 44.29062 69.57579 29979 ft 462 kts 279°
2026-04-20 10:08 44.30157 69.48744 29984 ft 461 kts 278°
2026-04-20 10:09 44.31244 69.39914 29966 ft 461 kts 278°
2026-04-20 10:09 44.32323 69.31090 29980 ft 461 kts 278°
2026-04-20 10:10 44.33391 69.22297 29979 ft 462 kts 278°
2026-04-20 10:10 44.34459 69.13448 29982 ft 462 kts 278°
2026-04-20 10:11 44.35521 69.04587 29977 ft 462 kts 278°
2026-04-20 10:11 44.36578 68.95714 29965 ft 463 kts 278°
2026-04-20 10:12 44.37630 68.86801 29987 ft 466 kts 278°
2026-04-20 10:12 44.38672 68.77829 29980 ft 469 kts 278°
2026-04-20 10:13 44.39715 68.68786 29982 ft 472 kts 278°
2026-04-20 10:13 44.40750 68.59755 29978 ft 474 kts 278°
2026-04-20 10:14 44.41788 68.50644 29969 ft 475 kts 277°
2026-04-20 10:14 44.42820 68.41513 29977 ft 476 kts 277°
2026-04-20 10:15 44.43849 68.32345 29976 ft 477 kts 277°
2026-04-20 10:15 44.44871 68.23179 29975 ft 477 kts 277°
2026-04-20 10:16 44.45865 68.13999 29975 ft 476 kts 276°
2026-04-20 10:16 44.46818 68.04841 29983 ft 474 kts 276°
2026-04-20 10:17 44.47756 67.95777 29965 ft 472 kts 276°
2026-04-20 10:17 44.48694 67.86697 29968 ft 470 kts 276°
2026-04-20 10:18 44.49622 67.77637 29973 ft 469 kts 276°
2026-04-20 10:18 44.50542 67.68588 29972 ft 469 kts 276°
2026-04-20 10:19 44.51456 67.59533 29975 ft 469 kts 276°
2026-04-20 10:19 44.52361 67.50547 29973 ft 468 kts 277°
2026-04-20 10:20 44.53293 67.41525 29957 ft 467 kts 277°
2026-04-20 10:20 44.54223 67.32514 29962 ft 467 kts 277°
2026-04-20 10:21 44.55140 67.23516 29959 ft 466 kts 277°
2026-04-20 10:21 44.56048 67.14514 29955 ft 465 kts 277°
2026-04-20 10:22 44.56947 67.05531 29948 ft 464 kts 277°
2026-04-20 10:22 44.57837 66.96561 29946 ft 463 kts 277°
2026-04-20 10:23 44.58712 66.87670 29958 ft 463 kts 277°
2026-04-20 10:23 44.59586 66.78717 29942 ft 462 kts 277°
2026-04-20 10:24 44.60452 66.69778 29936 ft 462 kts 277°
2026-04-20 10:24 44.61311 66.60842 29941 ft 462 kts 277°
2026-04-20 10:25 44.62101 66.51894 29943 ft 462 kts 276°
2026-04-20 10:25 44.62820 66.42979 29942 ft 463 kts 276°
2026-04-20 10:26 44.63543 66.33997 29940 ft 463 kts 276°
2026-04-20 10:26 44.64270 66.25002 29937 ft 464 kts 276°
2026-04-20 10:27 44.64994 66.16002 29930 ft 464 kts 276°
2026-04-20 10:27 44.65710 66.07001 29930 ft 464 kts 275°
2026-04-20 10:28 44.66420 65.97989 29926 ft 464 kts 275°
2026-04-20 10:28 44.67121 65.88982 29926 ft 463 kts 275°
2026-04-20 10:29 44.67812 65.80031 29921 ft 463 kts 275°
2026-04-20 10:29 44.68499 65.71023 29924 ft 463 kts 275°
2026-04-20 10:30 44.69181 65.62015 29940 ft 463 kts 275°
2026-04-20 10:30 44.70150 65.53053 29936 ft 465 kts 283°
2026-04-20 10:31 44.71842 65.44293 29941 ft 464 kts 283°
2026-04-20 10:31 44.73511 65.35513 29931 ft 465 kts 283°
2026-04-20 10:32 44.75153 65.26703 29932 ft 466 kts 282°
2026-04-20 10:32 44.76787 65.17862 29923 ft 466 kts 282°
2026-04-20 10:33 44.78404 65.09078 29919 ft 467 kts 282°
2026-04-20 10:33 44.80027 65.00225 29924 ft 467 kts 282°
2026-04-20 10:34 44.81646 64.91353 29918 ft 468 kts 281°
2026-04-20 10:35 44.84020 64.77987 29919 ft 469 kts 281°
2026-04-20 10:35 44.85571 64.69049 29910 ft 470 kts 281°
2026-04-20 10:36 44.87125 64.60098 29912 ft 470 kts 281°
2026-04-20 10:36 44.88592 64.51122 29914 ft 470 kts 279°
2026-04-20 10:37 44.90021 64.42112 29912 ft 470 kts 279°
2026-04-20 10:37 44.91452 64.33098 29909 ft 470 kts 279°
2026-04-20 10:38 44.92640 64.25617 29902 ft 470 kts 279°
2026-04-20 10:38 44.94067 64.16612 29907 ft 470 kts 279°
2026-04-20 10:39 44.95484 64.07610 29901 ft 470 kts 279°
2026-04-20 10:39 44.96894 63.98610 29917 ft 469 kts 279°
2026-04-20 10:40 44.98296 63.89600 29913 ft 470 kts 279°
2026-04-20 10:40 44.99692 63.80583 29898 ft 469 kts 279°
2026-04-20 10:41 45.01071 63.71631 29898 ft 469 kts 279°
2026-04-20 10:41 45.02448 63.62638 29897 ft 468 kts 279°
2026-04-20 10:42 45.03818 63.53644 29898 ft 467 kts 279°
2026-04-20 10:42 45.05179 63.44659 29929 ft 469 kts 279°
2026-04-20 10:42 45.05860 63.40133 30198 ft 470 kts 278°
2026-04-20 10:43 45.06537 63.35629 30626 ft 467 kts 278°
2026-04-20 10:43 45.07208 63.31154 31062 ft 463 kts 278°
2026-04-20 10:43 45.07874 63.26706 31478 ft 461 kts 278°
2026-04-20 10:43 45.08536 63.22263 31806 ft 460 kts 278°
2026-04-20 10:44 45.09195 63.17821 31845 ft 463 kts 278°
2026-04-20 10:44 45.10513 63.08908 31872 ft 461 kts 278°
2026-04-20 10:45 45.11809 63.00103 31882 ft 458 kts 278°
2026-04-20 10:45 45.13102 62.91265 31900 ft 457 kts 278°
2026-04-20 10:46 45.14384 62.82448 31882 ft 457 kts 278°
2026-04-20 10:46 45.15658 62.73632 31880 ft 457 kts 278°
2026-04-20 10:47 45.16921 62.64850 31881 ft 458 kts 278°
2026-04-20 10:47 45.18188 62.55992 31873 ft 459 kts 277°
2026-04-20 10:48 45.19448 62.47112 31874 ft 460 kts 277°
2026-04-20 10:48 45.20700 62.38223 31897 ft 461 kts 277°
2026-04-20 10:49 45.21951 62.29298 31874 ft 462 kts 277°
2026-04-20 10:49 45.23197 62.20357 31861 ft 462 kts 277°
2026-04-20 10:50 45.24436 62.11406 31859 ft 462 kts 277°
2026-04-20 10:50 45.25668 62.02457 31863 ft 462 kts 277°
2026-04-20 10:51 45.26894 61.93502 31867 ft 462 kts 277°
2026-04-20 10:51 45.28113 61.84543 31858 ft 463 kts 276°
2026-04-20 10:52 45.29329 61.75551 31861 ft 464 kts 276°
2026-04-20 10:52 45.30543 61.66524 31857 ft 466 kts 276°
2026-04-20 10:53 45.31757 61.57462 31856 ft 468 kts 276°
2026-04-20 10:53 45.32966 61.48377 31857 ft 468 kts 276°
2026-04-20 10:54 45.34162 61.39321 31850 ft 469 kts 275°
2026-04-20 10:54 45.35357 61.30220 31867 ft 469 kts 275°
2026-04-20 10:55 45.36546 61.21092 31847 ft 469 kts 275°
2026-04-20 10:55 45.37729 61.11967 31835 ft 468 kts 275°
2026-04-20 10:56 45.38902 61.02860 31834 ft 467 kts 275°
2026-04-20 10:56 45.40065 60.93761 31837 ft 467 kts 275°
2026-04-20 10:57 45.41212 60.84736 31847 ft 466 kts 275°
2026-04-20 10:57 45.42359 60.75630 31835 ft 467 kts 275°
2026-04-20 10:58 45.43428 60.66521 31829 ft 467 kts 274°
2026-04-20 10:58 45.44458 60.57385 31825 ft 468 kts 274°
2026-04-20 10:59 45.45490 60.48229 31827 ft 468 kts 274°
2026-04-20 10:59 45.46523 60.39059 31816 ft 469 kts 274°
2026-04-20 11:00 45.47554 60.29871 31828 ft 470 kts 274°
2026-04-20 11:00 45.48579 60.20666 31833 ft 470 kts 273°
2026-04-20 11:01 45.49590 60.11515 31817 ft 470 kts 273°
2026-04-20 11:01 45.50599 60.02311 31809 ft 469 kts 273°
2026-04-20 11:02 45.51598 59.93132 31809 ft 468 kts 273°
2026-04-20 11:02 45.52587 59.83965 31806 ft 467 kts 273°
2026-04-20 11:03 45.53569 59.74791 31802 ft 467 kts 273°
2026-04-20 11:03 45.54544 59.65614 31803 ft 467 kts 273°
2026-04-20 11:04 45.55510 59.56456 31808 ft 467 kts 274°
2026-04-20 11:04 45.56469 59.47281 31804 ft 467 kts 273°
2026-04-20 11:05 45.57416 59.38154 31798 ft 467 kts 273°
2026-04-20 11:05 45.58361 59.28966 31784 ft 468 kts 274°
2026-04-20 11:06 45.59301 59.19760 31803 ft 469 kts 274°
2026-04-20 11:06 45.60236 59.10514 31800 ft 471 kts 274°
2026-04-20 11:07 45.61167 59.01246 31793 ft 472 kts 273°
2026-04-20 11:07 45.62091 58.91967 31791 ft 472 kts 273°
2026-04-20 11:08 45.63007 58.82695 31792 ft 471 kts 273°
2026-04-20 11:08 45.63907 58.73493 31778 ft 470 kts 274°
2026-04-20 11:09 45.64806 58.64242 31788 ft 469 kts 274°
2026-04-20 11:09 45.65694 58.55005 31776 ft 469 kts 274°
2026-04-20 11:10 45.66575 58.45770 31785 ft 469 kts 274°
2026-04-20 11:10 45.67448 58.36529 31780 ft 468 kts 273°
2026-04-20 11:11 45.68313 58.27294 31780 ft 468 kts 274°
2026-04-20 11:11 45.69172 58.18049 31768 ft 469 kts 274°
2026-04-20 11:12 45.70019 58.08838 31766 ft 471 kts 274°
2026-04-20 11:12 45.70866 57.99547 31766 ft 471 kts 274°
2026-04-20 11:13 45.71707 57.90244 31767 ft 472 kts 274°
2026-04-20 11:13 45.72545 57.80897 31760 ft 473 kts 274°
2026-04-20 11:14 45.73292 57.71535 31746 ft 472 kts 268°
2026-04-20 11:14 45.72626 57.62259 31759 ft 467 kts 254°
2026-04-20 11:15 45.70586 57.53490 31750 ft 464 kts 247°
2026-04-20 11:15 45.68340 57.44797 31738 ft 466 kts 247°
2026-04-20 11:16 45.66131 57.36147 31740 ft 467 kts 248°
2026-04-20 11:16 45.63916 57.27408 31730 ft 467 kts 248°
2026-04-20 11:17 45.61702 57.18670 31727 ft 467 kts 248°
2026-04-20 11:17 45.59481 57.09938 31723 ft 467 kts 248°
2026-04-20 11:18 45.57256 57.01229 31721 ft 467 kts 248°
2026-04-20 11:18 45.55021 56.92520 31716 ft 467 kts 248°
2026-04-20 11:19 45.52801 56.83894 31717 ft 466 kts 248°
2026-04-20 11:19 45.50558 56.75217 31710 ft 466 kts 248°
2026-04-20 11:20 45.48310 56.66550 31711 ft 466 kts 248°
2026-04-20 11:20 45.46055 56.57890 31705 ft 466 kts 248°
2026-04-20 11:21 45.43795 56.49241 31702 ft 466 kts 248°
2026-04-20 11:21 45.41531 56.40612 31705 ft 466 kts 248°
2026-04-20 11:22 45.39257 56.31973 31708 ft 466 kts 248°
2026-04-20 11:22 45.36979 56.23351 31701 ft 466 kts 248°
2026-04-20 11:23 45.34708 56.14788 31706 ft 465 kts 248°
2026-04-20 11:23 45.32420 56.06191 31707 ft 465 kts 248°
2026-04-20 11:24 45.30123 55.97590 31715 ft 465 kts 248°
2026-04-20 11:24 45.27819 55.88997 31719 ft 465 kts 248°
2026-04-20 11:25 45.25510 55.80413 31717 ft 465 kts 248°
2026-04-20 11:25 45.23208 55.71888 31719 ft 465 kts 248°
2026-04-20 11:26 45.20886 55.63319 31726 ft 465 kts 248°
2026-04-20 11:26 45.18560 55.54765 31711 ft 465 kts 248°
2026-04-20 11:27 45.16231 55.46227 31712 ft 464 kts 248°
2026-04-20 11:27 45.13894 55.37694 31731 ft 464 kts 248°
2026-04-20 11:28 45.11556 55.29183 31741 ft 464 kts 247°
2026-04-20 11:28 45.09607 55.22107 31723 ft 463 kts 247°
2026-04-20 11:29 45.06880 55.12256 31734 ft 462 kts 247°
2026-04-20 11:29 45.04910 55.05167 31733 ft 462 kts 247°
2026-04-20 11:30 45.02555 54.96710 31755 ft 462 kts 247°
2026-04-20 11:30 45.00212 54.88323 31730 ft 461 kts 247°
2026-04-20 11:31 44.97853 54.79908 31742 ft 460 kts 247°
2026-04-20 11:31 44.95489 54.71503 31742 ft 460 kts 247°
2026-04-20 11:32 44.93121 54.63115 31754 ft 460 kts 246°
2026-04-20 11:32 44.90747 54.54732 31746 ft 460 kts 246°
2026-04-20 11:33 44.88371 54.46370 31746 ft 459 kts 246°
2026-04-20 11:33 44.85993 54.38022 31756 ft 459 kts 246°
2026-04-20 11:34 44.83621 54.29735 31763 ft 459 kts 246°
2026-04-20 11:34 44.81222 54.21412 31762 ft 458 kts 246°
2026-04-20 11:35 44.78817 54.13097 31762 ft 458 kts 246°
2026-04-20 11:35 44.76414 54.04806 31766 ft 457 kts 246°
2026-04-20 11:36 44.74003 53.96517 31772 ft 457 kts 246°
2026-04-20 11:36 44.71591 53.88248 31776 ft 457 kts 246°
2026-04-20 11:37 44.69173 53.79987 31779 ft 457 kts 246°
2026-04-20 11:37 44.65550 53.67658 31782 ft 457 kts 246°
2026-04-20 11:38 44.63118 53.59419 31789 ft 456 kts 246°
2026-04-20 11:38 44.60680 53.51184 31784 ft 456 kts 246°
2026-04-20 11:39 44.58240 53.42969 31782 ft 456 kts 246°
2026-04-20 11:39 44.55795 53.34764 31784 ft 456 kts 246°
2026-04-20 11:40 44.53346 53.26571 31790 ft 455 kts 246°
2026-04-20 11:40 44.50892 53.18387 31792 ft 455 kts 246°
2026-04-20 11:41 44.48433 53.10217 31794 ft 455 kts 246°
2026-04-20 11:41 44.45970 53.02053 31795 ft 455 kts 246°
2026-04-20 11:42 44.43501 52.93895 31802 ft 455 kts 246°
2026-04-20 11:42 44.41029 52.85754 31800 ft 455 kts 246°
2026-04-20 11:43 44.38546 52.77604 31798 ft 454 kts 246°
2026-04-20 11:43 44.36082 52.69536 31805 ft 454 kts 246°
2026-04-20 11:44 44.33603 52.61436 31818 ft 453 kts 246°
2026-04-20 11:44 44.31120 52.53347 31809 ft 452 kts 246°
2026-04-20 11:45 44.28638 52.45289 31818 ft 452 kts 245°
2026-04-20 11:45 44.26156 52.37255 31815 ft 451 kts 245°
2026-04-20 11:46 44.23669 52.29226 31823 ft 451 kts 245°
2026-04-20 11:46 44.21176 52.21203 31820 ft 450 kts 245°
2026-04-20 11:47 44.18788 52.13121 31819 ft 451 kts 247°
2026-04-20 11:47 44.16472 52.05058 31831 ft 451 kts 247°
2026-04-20 11:48 44.14129 51.96965 31834 ft 451 kts 246°
2026-04-20 11:48 44.11767 51.88878 31835 ft 451 kts 246°
2026-04-20 11:49 44.09388 51.80775 31838 ft 451 kts 246°
2026-04-20 11:49 44.07008 51.72694 31840 ft 451 kts 246°
2026-04-20 11:50 44.04620 51.64614 31843 ft 451 kts 246°
2026-04-20 11:50 44.02227 51.56541 31843 ft 451 kts 246°
2026-04-20 11:51 43.99829 51.48474 31854 ft 451 kts 246°
2026-04-20 11:51 43.97445 51.40481 31865 ft 451 kts 246°
2026-04-20 11:52 43.95039 51.32437 31874 ft 451 kts 246°
2026-04-20 11:52 43.92629 51.24406 31882 ft 451 kts 246°
2026-04-20 11:53 43.90216 51.16384 31887 ft 451 kts 246°
2026-04-20 11:53 43.88098 51.08206 31876 ft 453 kts 255°
2026-04-20 11:54 43.87187 50.99550 31883 ft 456 kts 265°
2026-04-20 11:54 43.87226 50.90756 31883 ft 456 kts 268°
2026-04-20 11:55 43.87323 50.81957 31896 ft 456 kts 268°
2026-04-20 11:55 43.87388 50.73222 31886 ft 456 kts 267°
2026-04-20 11:56 43.87430 50.64433 31895 ft 455 kts 267°
2026-04-20 11:56 43.87459 50.55659 31897 ft 455 kts 267°
2026-04-20 11:57 43.87482 50.46885 31901 ft 455 kts 267°
2026-04-20 11:57 43.87499 50.38100 31902 ft 455 kts 267°
2026-04-20 11:58 43.87509 50.29324 31910 ft 455 kts 267°
2026-04-20 11:58 43.87513 50.20540 31917 ft 456 kts 267°
2026-04-20 11:59 43.87510 50.11816 31929 ft 456 kts 267°
2026-04-20 11:59 43.87500 50.03030 31919 ft 456 kts 267°
2026-04-20 12:00 43.87484 49.94232 31921 ft 456 kts 267°
2026-04-20 12:00 43.87461 49.85442 31921 ft 456 kts 267°
2026-04-20 12:01 43.87431 49.76654 31919 ft 456 kts 267°
2026-04-20 12:01 43.87394 49.67869 31918 ft 456 kts 267°
2026-04-20 12:02 43.87352 49.59082 31921 ft 456 kts 267°
2026-04-20 12:02 43.87302 49.50298 31924 ft 456 kts 266°
2026-04-20 12:03 43.87271 49.41517 31925 ft 456 kts 267°
2026-04-20 12:03 43.87253 49.32738 31925 ft 455 kts 267°
2026-04-20 12:04 43.87228 49.23962 31926 ft 455 kts 267°
2026-04-20 12:04 43.87194 49.15188 31930 ft 455 kts 267°
2026-04-20 12:05 43.87151 49.06462 31929 ft 455 kts 267°
2026-04-20 12:05 43.87101 48.97693 31924 ft 455 kts 267°
2026-04-20 12:06 43.87045 48.88927 31931 ft 455 kts 266°
2026-04-20 12:06 43.86982 48.80163 31931 ft 454 kts 266°
2026-04-20 12:07 43.86912 48.71404 31931 ft 454 kts 266°
2026-04-20 12:07 43.86836 48.62649 31933 ft 454 kts 266°
2026-04-20 12:08 43.86753 48.53913 31955 ft 453 kts 266°
2026-04-20 12:08 43.86664 48.45251 31939 ft 451 kts 266°
2026-04-20 12:09 43.86569 48.36567 31930 ft 450 kts 266°
2026-04-20 12:09 43.86467 48.27904 31935 ft 449 kts 266°
2026-04-20 12:10 43.86358 48.19257 31956 ft 448 kts 265°
2026-04-20 12:10 43.86243 48.10625 31930 ft 447 kts 265°
2026-04-20 12:11 43.86124 48.02025 31935 ft 446 kts 265°
2026-04-20 12:11 43.85996 47.93437 31939 ft 445 kts 265°
2026-04-20 12:12 43.85864 47.84869 31941 ft 444 kts 265°
2026-04-20 12:12 43.85725 47.76323 31944 ft 444 kts 265°
2026-04-20 12:13 43.85579 47.67779 31947 ft 444 kts 264°
2026-04-20 12:13 43.85427 47.59224 31945 ft 444 kts 264°
2026-04-20 12:14 43.85270 47.50720 31945 ft 445 kts 264°
2026-04-20 12:14 43.85105 47.42150 31963 ft 445 kts 264°
2026-04-20 12:15 43.84933 47.33568 31948 ft 446 kts 264°
2026-04-20 12:15 43.84755 47.24987 31956 ft 446 kts 264°
2026-04-20 12:16 43.84602 47.17843 31953 ft 446 kts 264°
2026-04-20 12:16 43.84412 47.09242 31950 ft 446 kts 264°
2026-04-20 12:17 43.84183 46.99256 31955 ft 446 kts 264°
2026-04-20 12:17 43.84014 46.92095 31953 ft 446 kts 264°
2026-04-20 12:18 43.83805 46.83499 31970 ft 446 kts 264°
2026-04-20 12:18 43.83590 46.74903 31965 ft 447 kts 264°
2026-04-20 12:19 43.83683 46.66268 31966 ft 450 kts 269°
2026-04-20 12:19 43.84104 46.57616 31958 ft 449 kts 269°
2026-04-20 12:20 43.84502 46.49032 31958 ft 448 kts 269°
2026-04-20 12:20 43.84884 46.40417 31961 ft 448 kts 269°
2026-04-20 12:21 43.85254 46.31799 31972 ft 447 kts 269°
2026-04-20 12:21 43.85616 46.23184 31956 ft 447 kts 269°
2026-04-20 12:22 43.85972 46.14574 31962 ft 447 kts 269°
2026-04-20 12:22 43.86320 46.06026 31958 ft 447 kts 268°
2026-04-20 12:23 43.86663 45.97425 31962 ft 447 kts 268°
2026-04-20 12:23 43.87000 45.88820 31963 ft 447 kts 268°
2026-04-20 12:24 43.87331 45.80204 31968 ft 448 kts 268°
2026-04-20 12:24 43.87655 45.71580 31949 ft 448 kts 268°
2026-04-20 12:25 43.87974 45.62956 31951 ft 448 kts 268°
2026-04-20 12:25 43.88286 45.54327 31965 ft 448 kts 268°
2026-04-20 12:26 43.88591 45.45692 31952 ft 448 kts 268°
2026-04-20 12:26 43.88888 45.37119 31989 ft 448 kts 268°
2026-04-20 12:27 43.89181 45.28473 31952 ft 449 kts 268°
2026-04-20 12:27 43.89467 45.19832 31959 ft 448 kts 268°
2026-04-20 12:28 43.89747 45.11199 31965 ft 448 kts 268°
2026-04-20 12:28 43.90020 45.02572 31958 ft 447 kts 268°
2026-04-20 12:29 43.90285 44.93957 31964 ft 447 kts 268°
2026-04-20 12:29 43.90544 44.85350 31976 ft 447 kts 268°
2026-04-20 12:30 43.90797 44.76727 31947 ft 447 kts 268°
2026-04-20 12:30 43.91044 44.68125 31960 ft 446 kts 268°
2026-04-20 12:31 43.91283 44.59536 31958 ft 445 kts 268°
2026-04-20 12:31 43.91514 44.51002 31963 ft 445 kts 268°
2026-04-20 12:32 43.91740 44.42395 31951 ft 446 kts 268°
2026-04-20 12:32 43.91960 44.33802 31958 ft 446 kts 268°
2026-04-20 12:33 43.92174 44.25201 31949 ft 446 kts 268°
2026-04-20 12:33 43.92380 44.16658 31954 ft 446 kts 268°
2026-04-20 12:34 43.92580 44.08053 31943 ft 446 kts 268°
2026-04-20 12:34 43.92775 43.99446 31954 ft 446 kts 267°
2026-04-20 12:35 43.92963 43.90834 31962 ft 446 kts 267°
2026-04-20 12:35 43.93145 43.82225 31943 ft 446 kts 267°
2026-04-20 12:36 43.93319 43.73689 31939 ft 446 kts 267°
2026-04-20 12:36 43.93487 43.65079 31939 ft 445 kts 267°
2026-04-20 12:37 43.93649 43.56489 31944 ft 445 kts 267°
2026-04-20 12:37 43.93804 43.47899 31956 ft 445 kts 267°
2026-04-20 12:38 43.93953 43.39305 31967 ft 446 kts 267°
2026-04-20 12:38 43.94096 43.30687 31979 ft 447 kts 267°
2026-04-20 12:39 43.94298 43.17807 31977 ft 447 kts 267°
2026-04-20 12:40 43.94425 43.09177 31984 ft 448 kts 267°
2026-04-20 12:40 43.94546 43.00534 31986 ft 447 kts 267°
2026-04-20 12:41 43.94659 42.91900 32012 ft 447 kts 267°
2026-04-20 12:41 43.94767 42.83268 31991 ft 447 kts 267°
2026-04-20 12:42 43.94868 42.74628 31987 ft 448 kts 267°
2026-04-20 12:42 43.94964 42.65981 32001 ft 448 kts 267°
2026-04-20 12:43 43.94968 42.57391 31990 ft 447 kts 264°
2026-04-20 12:43 43.94698 42.48782 31991 ft 446 kts 264°
2026-04-20 12:44 43.94404 42.40181 32007 ft 446 kts 264°
2026-04-20 12:44 43.94137 42.31574 31988 ft 447 kts 264°
2026-04-20 12:45 43.93879 42.22945 31987 ft 447 kts 264°
2026-04-20 12:45 43.93620 42.14327 31992 ft 448 kts 264°
2026-04-20 12:46 43.93354 42.05689 31989 ft 448 kts 264°
2026-04-20 12:46 43.93080 41.97093 31982 ft 448 kts 264°
2026-04-20 12:47 43.92799 41.88448 31990 ft 449 kts 265°
2026-04-20 12:47 43.92511 41.79793 31964 ft 450 kts 265°
2026-04-20 12:48 43.92215 41.71113 31962 ft 451 kts 265°
2026-04-20 12:48 43.91913 41.62407 31956 ft 451 kts 265°
2026-04-20 12:49 43.91601 41.53695 31980 ft 452 kts 265°
2026-04-20 12:49 43.91262 41.45039 31974 ft 452 kts 264°
2026-04-20 12:50 43.90911 41.36328 31973 ft 452 kts 265°
2026-04-20 12:50 43.90557 41.27625 31961 ft 452 kts 265°
2026-04-20 12:51 43.90196 41.18911 31975 ft 452 kts 265°
2026-04-20 12:51 43.89830 41.10201 31967 ft 453 kts 265°
2026-04-20 12:52 43.89456 41.01474 31964 ft 453 kts 265°
2026-04-20 12:52 43.89076 40.92757 31962 ft 454 kts 265°
2026-04-20 12:53 43.88691 40.84031 31970 ft 454 kts 265°
2026-04-20 12:53 43.88203 40.75367 31967 ft 453 kts 260°
2026-04-20 12:54 43.86697 40.66910 31974 ft 451 kts 251°
2026-04-20 12:54 43.84297 40.58873 31988 ft 451 kts 246°
2026-04-20 12:55 43.81721 40.50957 31988 ft 451 kts 246°
2026-04-20 12:55 43.79162 40.43030 31987 ft 451 kts 246°
2026-04-20 12:56 43.76614 40.35104 32014 ft 451 kts 246°
2026-04-20 12:56 43.74058 40.27165 32025 ft 452 kts 246°
2026-04-20 12:57 43.71491 40.19209 32031 ft 452 kts 246°
2026-04-20 12:57 43.68930 40.11303 32042 ft 453 kts 246°
2026-04-20 12:58 43.66345 40.03336 32031 ft 454 kts 246°
2026-04-20 12:58 43.63761 39.95377 32018 ft 455 kts 246°
2026-04-20 12:59 43.61167 39.87409 32035 ft 454 kts 246°
2026-04-20 12:59 43.58575 39.79475 32046 ft 453 kts 246°
2026-04-20 13:00 43.55983 39.71560 32042 ft 452 kts 246°
2026-04-20 13:00 43.53378 39.63685 32060 ft 451 kts 246°
2026-04-20 13:01 43.50781 39.55893 32050 ft 450 kts 246°
2026-04-20 13:01 43.48166 39.48056 32039 ft 451 kts 246°
2026-04-20 13:02 43.45540 39.40205 32043 ft 452 kts 246°
2026-04-20 13:02 43.42895 39.32315 32061 ft 454 kts 246°
2026-04-20 13:03 43.40241 39.24423 32068 ft 455 kts 246°
2026-04-20 13:03 43.37576 39.16517 32055 ft 456 kts 246°
2026-04-20 13:04 43.34915 39.08602 32066 ft 456 kts 248°
2026-04-20 13:04 43.32605 39.00473 32060 ft 457 kts 250°
2026-04-20 13:05 43.30724 38.93699 32064 ft 457 kts 250°
2026-04-20 13:05 43.28435 38.85551 32043 ft 457 kts 250°
2026-04-20 13:06 43.26146 38.77460 32067 ft 457 kts 250°
2026-04-20 13:06 43.23815 38.69353 32064 ft 457 kts 249°
2026-04-20 13:07 43.21467 38.61259 32064 ft 457 kts 249°
2026-04-20 13:07 43.19118 38.53172 32064 ft 457 kts 249°
2026-04-20 13:08 43.16765 38.45082 32060 ft 457 kts 249°
2026-04-20 13:08 43.14407 38.36999 32065 ft 457 kts 249°
2026-04-20 13:09 43.12038 38.28904 32062 ft 458 kts 249°
2026-04-20 13:09 43.09665 38.20821 32061 ft 458 kts 249°
2026-04-20 13:10 43.07300 38.12728 32060 ft 458 kts 250°
2026-04-20 13:10 43.04988 38.04656 32068 ft 459 kts 250°
2026-04-20 13:11 43.02641 37.96532 32067 ft 460 kts 249°
2026-04-20 13:11 43.00257 37.88424 32062 ft 460 kts 249°
2026-04-20 13:12 42.97865 37.80309 32057 ft 460 kts 249°
2026-04-20 13:12 42.95448 37.72212 32067 ft 461 kts 249°
2026-04-20 13:13 42.93012 37.64111 32069 ft 461 kts 249°
2026-04-20 13:13 42.90574 37.56015 32063 ft 462 kts 249°
2026-04-20 13:14 42.88142 37.47957 32061 ft 462 kts 249°
2026-04-20 13:14 42.85690 37.39852 32066 ft 463 kts 249°
2026-04-20 13:15 42.83227 37.31739 32065 ft 463 kts 249°
2026-04-20 13:15 42.80756 37.23626 32067 ft 464 kts 249°
2026-04-20 13:16 42.78276 37.15506 32059 ft 463 kts 249°
2026-04-20 13:16 42.75794 37.07408 32063 ft 463 kts 249°
2026-04-20 13:17 42.73311 36.99325 32066 ft 463 kts 249°
2026-04-20 13:17 42.70808 36.91241 32066 ft 463 kts 248°
2026-04-20 13:18 42.68014 36.83398 32058 ft 464 kts 245°
2026-04-20 13:18 42.65129 36.75547 32068 ft 464 kts 245°
2026-04-20 13:19 42.62249 36.67697 32067 ft 465 kts 245°
2026-04-20 13:19 42.59371 36.59830 32068 ft 465 kts 245°
2026-04-20 13:20 42.56491 36.51968 32067 ft 465 kts 245°
2026-04-20 13:20 42.53603 36.44103 32068 ft 465 kts 245°
2026-04-20 13:21 42.50708 36.36243 32065 ft 465 kts 245°
2026-04-20 13:21 42.47832 36.28458 32057 ft 465 kts 245°
2026-04-20 13:22 42.44933 36.20630 32068 ft 464 kts 245°
2026-04-20 13:22 42.42028 36.12809 32063 ft 464 kts 245°
2026-04-20 13:23 42.39120 36.05001 32065 ft 464 kts 245°
2026-04-20 13:23 42.36206 35.97199 32057 ft 464 kts 245°
2026-04-20 13:24 42.33285 35.89398 32071 ft 465 kts 245°
2026-04-20 13:24 42.30355 35.81595 32068 ft 466 kts 245°
2026-04-20 13:25 42.27435 35.73841 32068 ft 466 kts 245°
2026-04-20 13:25 42.24487 35.66030 32061 ft 467 kts 245°
2026-04-20 13:26 42.21533 35.58229 32068 ft 467 kts 245°
2026-04-20 13:26 42.18572 35.50425 32065 ft 467 kts 245°
2026-04-20 13:27 42.15607 35.42632 32061 ft 467 kts 245°
2026-04-20 13:27 42.12645 35.34832 32076 ft 466 kts 245°
2026-04-20 13:28 42.09703 35.27055 32071 ft 466 kts 245°
2026-04-20 13:28 42.06759 35.19298 32075 ft 465 kts 245°
2026-04-20 13:29 42.03905 35.11571 32065 ft 462 kts 250°
2026-04-20 13:29 42.02162 35.03300 32085 ft 458 kts 262°
2026-04-20 13:30 42.01610 34.94786 32082 ft 457 kts 269°
2026-04-20 13:30 42.01231 34.86251 32074 ft 458 kts 268°
2026-04-20 13:31 42.00804 34.77693 32074 ft 459 kts 268°
2026-04-20 13:31 42.00385 34.69137 32065 ft 459 kts 268°
2026-04-20 13:32 41.99961 34.60569 32056 ft 458 kts 268°
2026-04-20 13:32 41.99530 34.52020 32051 ft 458 kts 267°
2026-04-20 13:33 41.99092 34.43478 32053 ft 458 kts 267°
2026-04-20 13:33 41.98651 34.34987 32045 ft 457 kts 267°
2026-04-20 13:34 41.98201 34.26461 32049 ft 457 kts 267°
2026-04-20 13:34 41.97746 34.17948 32049 ft 456 kts 267°
2026-04-20 13:35 41.97285 34.09442 32042 ft 456 kts 267°
2026-04-20 13:35 41.96818 34.00942 32045 ft 456 kts 267°
2026-04-20 13:36 41.96345 33.92445 32043 ft 455 kts 267°
2026-04-20 13:36 41.95866 33.83961 32050 ft 455 kts 267°
2026-04-20 13:37 41.95386 33.75545 32046 ft 455 kts 266°
2026-04-20 13:37 41.94631 33.67109 32037 ft 456 kts 259°
2026-04-20 13:38 41.93288 33.58769 32033 ft 456 kts 259°
2026-04-20 13:38 41.91963 33.50455 32031 ft 455 kts 259°
2026-04-20 13:39 41.90653 33.42139 32028 ft 455 kts 259°
2026-04-20 13:39 41.89343 33.33830 32025 ft 455 kts 259°
2026-04-20 13:40 41.88027 33.25518 32030 ft 455 kts 259°
2026-04-20 13:40 41.86714 33.17277 32020 ft 455 kts 259°
2026-04-20 13:41 41.85387 33.08978 32026 ft 455 kts 259°
2026-04-20 13:41 41.84051 33.00686 32031 ft 455 kts 259°
2026-04-20 13:42 41.82701 32.92406 32032 ft 454 kts 259°
2026-04-20 13:42 41.80663 32.79981 32031 ft 454 kts 259°
2026-04-20 13:43 41.79311 32.71770 32037 ft 454 kts 259°
2026-04-20 13:43 41.77944 32.63510 32039 ft 454 kts 259°
2026-04-20 13:44 41.76572 32.55257 32033 ft 454 kts 259°
2026-04-20 13:44 41.75192 32.46998 32033 ft 454 kts 259°
2026-04-20 13:45 41.73807 32.38740 32033 ft 454 kts 259°
2026-04-20 13:45 41.72417 32.30494 32034 ft 454 kts 258°
2026-04-20 13:46 41.70981 32.22311 32026 ft 454 kts 258°
2026-04-20 13:46 41.69490 32.14104 32028 ft 453 kts 258°
2026-04-20 13:47 41.68000 32.05912 32029 ft 453 kts 258°
2026-04-20 13:47 41.66510 31.97715 32029 ft 453 kts 258°
2026-04-20 13:48 41.65030 31.89588 32026 ft 453 kts 258°
2026-04-20 13:48 41.63533 31.81407 32043 ft 453 kts 257°
2026-04-20 13:49 41.62028 31.73220 32033 ft 453 kts 257°
2026-04-20 13:49 41.60518 31.65043 32032 ft 453 kts 257°
2026-04-20 13:50 41.59002 31.56862 32039 ft 453 kts 257°
2026-04-20 13:50 41.57479 31.48680 32035 ft 453 kts 257°
2026-04-20 13:51 41.55963 31.40569 32033 ft 453 kts 257°
2026-04-20 13:51 41.54437 31.32403 32033 ft 453 kts 258°
2026-04-20 13:52 41.52956 31.24172 32033 ft 453 kts 258°
2026-04-20 13:52 41.51505 31.16051 32017 ft 453 kts 258°
2026-04-20 13:53 41.50034 31.07886 32035 ft 452 kts 258°
2026-04-20 13:53 41.48554 30.99733 32035 ft 452 kts 258°
2026-04-20 13:54 41.47065 30.91569 32022 ft 453 kts 258°
2026-04-20 13:54 41.45822 30.84785 32029 ft 453 kts 257°
2026-04-20 13:55 41.44322 30.76628 32022 ft 453 kts 257°
2026-04-20 13:55 41.42816 30.68474 32028 ft 453 kts 257°
2026-04-20 13:56 41.41306 30.60333 32012 ft 453 kts 257°
2026-04-20 13:56 41.39789 30.52186 32024 ft 453 kts 257°
2026-04-20 13:57 41.38275 30.44093 32025 ft 453 kts 257°
2026-04-20 13:57 41.36748 30.35960 32025 ft 453 kts 257°
2026-04-20 13:58 41.35213 30.27821 32024 ft 453 kts 257°
2026-04-20 13:58 41.33673 30.19690 32018 ft 453 kts 257°
2026-04-20 13:59 41.32130 30.11569 32019 ft 453 kts 257°
2026-04-20 13:59 41.30792 30.03422 32013 ft 449 kts 267°
2026-04-20 14:00 41.31307 29.95178 32023 ft 449 kts 283°
2026-04-20 14:00 41.33396 29.87433 32009 ft 449 kts 291°
2026-04-20 14:01 41.35706 29.79694 32002 ft 451 kts 291°
2026-04-20 14:01 41.37991 29.71905 32000 ft 452 kts 290°
2026-04-20 14:02 41.40250 29.64080 31991 ft 453 kts 290°
2026-04-20 14:02 41.42496 29.56243 31986 ft 453 kts 290°
2026-04-20 14:03 41.44738 29.48392 31986 ft 452 kts 290°
2026-04-20 14:03 41.46971 29.40551 31983 ft 452 kts 290°
2026-04-20 14:04 41.49196 29.32715 31981 ft 451 kts 290°
2026-04-20 14:04 41.51411 29.24892 31979 ft 450 kts 290°
2026-04-20 14:05 41.53618 29.17072 31984 ft 449 kts 290°
2026-04-20 14:05 41.55815 29.09266 31982 ft 449 kts 290°
2026-04-20 14:06 41.58005 29.01460 31978 ft 449 kts 290°
2026-04-20 14:06 41.60171 28.93713 31971 ft 448 kts 290°
2026-04-20 14:07 41.62347 28.85910 31969 ft 447 kts 290°
2026-04-20 14:07 41.64516 28.78107 31969 ft 447 kts 290°
2026-04-20 14:08 41.66680 28.70295 31967 ft 447 kts 290°
2026-04-20 14:08 41.68835 28.62493 31964 ft 447 kts 290°
2026-04-20 14:09 41.70973 28.54729 31966 ft 447 kts 290°
2026-04-20 14:09 41.73117 28.46917 31942 ft 447 kts 290°
2026-04-20 14:10 41.75256 28.39100 31949 ft 447 kts 290°
2026-04-20 14:10 41.77390 28.31275 31952 ft 447 kts 290°
2026-04-20 14:11 41.79521 28.23437 31950 ft 447 kts 290°
2026-04-20 14:11 41.81648 28.15594 31943 ft 447 kts 290°
2026-04-20 14:12 41.83769 28.07741 31945 ft 447 kts 290°
2026-04-20 14:12 41.85868 27.99947 31943 ft 447 kts 290°
2026-04-20 14:13 41.87977 27.92091 31925 ft 447 kts 290°
2026-04-20 14:13 41.90080 27.84233 31923 ft 447 kts 290°
2026-04-20 14:14 41.92175 27.76380 31936 ft 447 kts 290°
2026-04-20 14:14 41.94267 27.68513 31920 ft 447 kts 290°
2026-04-20 14:15 41.96351 27.60651 31932 ft 447 kts 290°
2026-04-20 14:15 41.98427 27.52792 31941 ft 446 kts 290°
2026-04-20 14:16 42.00498 27.44927 31933 ft 446 kts 289°
2026-04-20 14:16 42.02551 27.37106 31926 ft 446 kts 289°
2026-04-20 14:17 42.04611 27.29231 31926 ft 446 kts 289°
2026-04-20 14:17 42.06678 27.21365 31924 ft 446 kts 291°
2026-04-20 14:18 42.09081 27.13618 32256 ft 449 kts 293°
2026-04-20 14:18 42.10316 27.09761 32676 ft 448 kts 293°
2026-04-20 14:18 42.11546 27.05919 33132 ft 445 kts 293°
2026-04-20 14:19 42.12765 27.02095 33578 ft 443 kts 293°
2026-04-20 14:19 42.13974 26.98284 33867 ft 443 kts 293°
2026-04-20 14:19 42.16393 26.90617 33913 ft 445 kts 293°
2026-04-20 14:20 42.18797 26.82953 33906 ft 442 kts 293°
2026-04-20 14:20 42.21181 26.75327 33909 ft 440 kts 293°
2026-04-20 14:21 42.23540 26.67762 33911 ft 440 kts 293°
2026-04-20 14:21 42.25907 26.60151 33913 ft 440 kts 293°
2026-04-20 14:22 42.28274 26.52517 33914 ft 440 kts 293°
2026-04-20 14:22 42.30637 26.44876 33889 ft 441 kts 293°
2026-04-20 14:23 42.32985 26.37258 33904 ft 442 kts 292°
2026-04-20 14:23 42.35348 26.29571 33901 ft 443 kts 292°
2026-04-20 14:24 42.37708 26.21872 33924 ft 443 kts 292°
2026-04-20 14:24 42.40061 26.14171 33918 ft 442 kts 292°
2026-04-20 14:25 42.42407 26.06472 33906 ft 442 kts 292°
2026-04-20 14:25 42.44745 25.98775 33916 ft 442 kts 292°
2026-04-20 14:26 42.47064 25.91121 33919 ft 441 kts 292°
2026-04-20 14:26 42.49385 25.83438 33918 ft 440 kts 292°
2026-04-20 14:27 42.51702 25.75743 33907 ft 440 kts 292°
2026-04-20 14:27 42.54012 25.68048 33905 ft 440 kts 292°
2026-04-20 14:28 42.56316 25.60352 33898 ft 440 kts 292°
2026-04-20 14:28 42.58603 25.52688 33901 ft 440 kts 292°
2026-04-20 14:29 42.60894 25.44990 33903 ft 440 kts 292°
2026-04-20 14:29 42.63180 25.37284 33904 ft 440 kts 292°
2026-04-20 14:30 42.65462 25.29569 33895 ft 440 kts 292°
2026-04-20 14:30 42.67736 25.21860 33889 ft 440 kts 291°
2026-04-20 14:31 42.70005 25.14144 33915 ft 439 kts 291°
2026-04-20 14:31 42.72267 25.06424 33915 ft 439 kts 292°
2026-04-20 14:32 42.74524 24.98702 33912 ft 439 kts 291°
2026-04-20 14:32 42.76762 24.91021 33927 ft 440 kts 291°
2026-04-20 14:33 42.79014 24.83271 33929 ft 440 kts 291°
2026-04-20 14:33 42.81257 24.75522 33929 ft 440 kts 292°
2026-04-20 14:34 42.83495 24.67773 33932 ft 439 kts 292°
2026-04-20 14:34 42.85722 24.60039 33926 ft 438 kts 291°
2026-04-20 14:35 42.87939 24.52308 33926 ft 437 kts 291°
2026-04-20 14:35 42.90142 24.44608 33933 ft 435 kts 292°
2026-04-20 14:36 42.92334 24.36921 33929 ft 434 kts 292°
2026-04-20 14:36 42.94516 24.29248 33936 ft 433 kts 292°
2026-04-20 14:37 42.96689 24.21585 33957 ft 432 kts 291°
2026-04-20 14:37 42.98837 24.13982 33951 ft 431 kts 292°
2026-04-20 14:38 43.00988 24.06346 33937 ft 430 kts 292°
2026-04-20 14:38 43.03129 23.98730 33944 ft 429 kts 292°
2026-04-20 14:39 43.05263 23.91112 33927 ft 428 kts 292°
2026-04-20 14:39 43.07385 23.83502 33935 ft 428 kts 292°
2026-04-20 14:40 43.09506 23.75879 33958 ft 428 kts 292°
2026-04-20 14:40 43.11574 23.68428 33938 ft 429 kts 292°
2026-04-20 14:41 43.13688 23.60788 33929 ft 429 kts 292°
2026-04-20 14:41 43.15779 23.53204 33946 ft 428 kts 292°
2026-04-20 14:42 43.17880 23.45561 33954 ft 428 kts 292°
2026-04-20 14:42 43.19976 23.37918 33935 ft 428 kts 292°
2026-04-20 14:43 43.22076 23.30279 33936 ft 428 kts 293°
2026-04-20 14:43 43.24265 23.22696 33936 ft 427 kts 293°
2026-04-20 14:44 43.26091 23.16408 33957 ft 426 kts 293°
2026-04-20 14:44 43.28269 23.08856 33935 ft 425 kts 293°
2026-04-20 14:45 43.30782 23.00080 33964 ft 424 kts 293°
2026-04-20 14:45 43.32586 22.93755 33961 ft 424 kts 293°
2026-04-20 14:46 43.34717 22.86264 33949 ft 423 kts 293°
2026-04-20 14:46 43.36852 22.78742 33964 ft 422 kts 293°
2026-04-20 14:47 43.38975 22.71222 33947 ft 421 kts 293°
2026-04-20 14:48 43.42142 22.59934 33961 ft 422 kts 293°
2026-04-20 14:48 43.44251 22.52389 33968 ft 422 kts 293°
2026-04-20 14:49 43.46340 22.44896 33975 ft 422 kts 293°
2026-04-20 14:49 43.48436 22.37356 33977 ft 422 kts 293°
2026-04-20 14:50 43.50520 22.29805 33950 ft 422 kts 293°
2026-04-20 14:50 43.52586 22.22264 33975 ft 420 kts 293°
2026-04-20 14:51 43.54644 22.14735 33971 ft 419 kts 293°
2026-04-20 14:51 43.56692 22.07221 33981 ft 418 kts 293°
2026-04-20 14:52 43.58733 21.99712 33990 ft 418 kts 293°
2026-04-20 14:52 43.60766 21.92209 33983 ft 418 kts 292°
2026-04-20 14:53 43.62796 21.84694 33971 ft 418 kts 292°
2026-04-20 14:53 43.64824 21.77164 33985 ft 418 kts 292°
2026-04-20 14:54 43.66834 21.69679 33980 ft 418 kts 292°
2026-04-20 14:54 43.68906 21.62165 34003 ft 417 kts 296°
2026-04-20 14:55 43.71549 21.55043 34000 ft 416 kts 299°
2026-04-20 14:55 43.74225 21.47937 33998 ft 416 kts 298°
2026-04-20 14:56 43.76881 21.40820 34001 ft 416 kts 298°
2026-04-20 14:56 43.79529 21.33695 33980 ft 416 kts 298°
2026-04-20 14:57 43.82170 21.26570 33989 ft 416 kts 298°
2026-04-20 14:57 43.84812 21.19428 33998 ft 416 kts 298°
2026-04-20 14:58 43.87453 21.12271 33997 ft 417 kts 298°
2026-04-20 14:58 43.90078 21.05138 33988 ft 418 kts 298°
2026-04-20 14:59 43.92714 20.97955 33995 ft 418 kts 298°
2026-04-20 14:59 43.95346 20.90766 33999 ft 418 kts 298°
2026-04-20 15:00 43.97982 20.83548 33985 ft 419 kts 298°
2026-04-20 15:00 44.00611 20.76329 34003 ft 418 kts 298°
2026-04-20 15:01 44.03232 20.69114 34004 ft 419 kts 298°
2026-04-20 15:01 44.05855 20.61872 33997 ft 419 kts 298°
2026-04-20 15:02 44.08453 20.54682 33996 ft 419 kts 298°
2026-04-20 15:02 44.11066 20.47432 33988 ft 419 kts 298°
2026-04-20 15:03 44.13665 20.40200 33993 ft 417 kts 298°
2026-04-20 15:03 44.16256 20.32973 33999 ft 416 kts 298°
2026-04-20 15:04 44.18830 20.25774 33993 ft 415 kts 297°
2026-04-20 15:04 44.21397 20.18575 33999 ft 414 kts 297°
2026-04-20 15:05 44.23955 20.11383 33994 ft 414 kts 297°
2026-04-20 15:05 44.26508 20.04186 33986 ft 414 kts 297°
2026-04-20 15:06 44.29056 19.96983 33993 ft 413 kts 297°
2026-04-20 15:06 44.31594 19.89793 33993 ft 413 kts 297°
2026-04-20 15:07 44.34131 19.82659 33992 ft 413 kts 298°
2026-04-20 15:07 44.36718 19.75502 33997 ft 412 kts 297°
2026-04-20 15:08 44.39300 19.68339 33989 ft 412 kts 297°
2026-04-20 15:08 44.41872 19.61170 33982 ft 412 kts 297°
2026-04-20 15:09 44.44439 19.53990 33988 ft 412 kts 297°
2026-04-20 15:09 44.46986 19.46844 34003 ft 412 kts 297°
2026-04-20 15:10 44.49540 19.39660 33994 ft 412 kts 297°
2026-04-20 15:10 44.52088 19.32476 33988 ft 411 kts 297°
2026-04-20 15:11 44.54629 19.25291 33994 ft 410 kts 297°
2026-04-20 15:11 44.57157 19.18128 33986 ft 409 kts 297°
2026-04-20 15:12 44.59520 19.10868 33987 ft 409 kts 294°
2026-04-20 15:12 44.61914 19.03627 33987 ft 409 kts 296°
2026-04-20 15:13 44.64422 18.96523 33986 ft 409 kts 297°
2026-04-20 15:13 44.66938 18.89357 33990 ft 409 kts 296°
2026-04-20 15:14 44.69435 18.82164 33997 ft 410 kts 296°
2026-04-20 15:14 44.71926 18.74941 33995 ft 411 kts 296°
2026-04-20 15:15 44.74416 18.67697 33996 ft 411 kts 296°
2026-04-20 15:15 44.76899 18.60451 34001 ft 411 kts 296°
2026-04-20 15:16 44.79380 18.53197 33996 ft 412 kts 296°
2026-04-20 15:16 44.81859 18.45927 34003 ft 411 kts 296°
2026-04-20 15:17 44.84328 18.38665 34005 ft 411 kts 296°
2026-04-20 15:17 44.86792 18.31400 34009 ft 411 kts 296°
2026-04-20 15:18 44.89236 18.24176 34029 ft 411 kts 296°
2026-04-20 15:18 44.91689 18.16904 34006 ft 410 kts 295°
2026-04-20 15:19 44.94135 18.09630 34005 ft 410 kts 295°
2026-04-20 15:19 44.96573 18.02366 34011 ft 409 kts 295°
2026-04-20 15:20 44.99380 17.95383 34017 ft 410 kts 302°
2026-04-20 15:20 45.02880 17.89009 34018 ft 410 kts 307°
2026-04-20 15:21 45.06388 17.82873 34007 ft 411 kts 306°
2026-04-20 15:21 45.09950 17.76514 34019 ft 413 kts 306°
2026-04-20 15:22 45.13516 17.70122 34013 ft 414 kts 306°
2026-04-20 15:22 45.17096 17.63698 34016 ft 415 kts 306°
2026-04-20 15:23 45.20681 17.57258 34035 ft 416 kts 306°
2026-04-20 15:23 45.24247 17.50840 34016 ft 417 kts 306°
2026-04-20 15:24 45.27835 17.44365 34007 ft 417 kts 306°
2026-04-20 15:24 45.31420 17.37881 34015 ft 417 kts 306°
2026-04-20 15:25 45.34996 17.31398 34013 ft 416 kts 306°
2026-04-20 15:25 45.38565 17.24915 34014 ft 417 kts 305°
2026-04-20 15:26 45.42137 17.18410 34015 ft 417 kts 305°
2026-04-20 15:26 45.45709 17.11889 34021 ft 417 kts 305°
2026-04-20 15:27 45.49256 17.05398 34018 ft 418 kts 305°
2026-04-20 15:27 45.52825 16.98856 34020 ft 418 kts 305°
2026-04-20 15:28 45.56395 16.92295 34015 ft 418 kts 305°
2026-04-20 15:28 45.59971 16.85726 34026 ft 419 kts 305°
2026-04-20 15:29 45.63548 16.79142 34029 ft 419 kts 305°
2026-04-20 15:29 45.67121 16.72551 34028 ft 420 kts 305°
2026-04-20 15:30 45.70694 16.65941 34016 ft 420 kts 305°
2026-04-20 15:30 45.74269 16.59310 34024 ft 421 kts 305°
2026-04-20 15:31 45.77824 16.52703 34034 ft 421 kts 305°
2026-04-20 15:31 45.81382 16.46073 34025 ft 418 kts 305°
2026-04-20 15:32 45.84917 16.39474 34020 ft 416 kts 305°
2026-04-20 15:32 45.88122 16.32625 34023 ft 412 kts 295°
2026-04-20 15:33 45.89960 16.26329 34031 ft 411 kts 289°
2026-04-20 15:33 45.91269 16.18341 34028 ft 412 kts 282°
2026-04-20 15:34 45.92270 16.10220 34023 ft 414 kts 282°
2026-04-20 15:34 45.93287 16.02077 34024 ft 415 kts 282°
2026-04-20 15:35 45.94326 15.93903 34023 ft 417 kts 282°
2026-04-20 15:35 45.95367 15.85696 34033 ft 417 kts 281°
2026-04-20 15:36 45.96396 15.77532 34037 ft 418 kts 281°
2026-04-20 15:36 45.97423 15.69317 34041 ft 417 kts 281°
2026-04-20 15:37 45.98413 15.61094 34048 ft 416 kts 281°
2026-04-20 15:37 45.99383 15.52881 34053 ft 416 kts 281°
2026-04-20 15:38 46.00347 15.44688 34040 ft 415 kts 281°
2026-04-20 15:38 46.01308 15.36487 34040 ft 415 kts 281°
2026-04-20 15:39 46.02257 15.28345 34029 ft 415 kts 281°
2026-04-20 15:39 46.03208 15.20141 34012 ft 415 kts 281°
2026-04-20 15:40 46.04152 15.11946 34004 ft 415 kts 281°
2026-04-20 15:40 46.05091 15.03728 33997 ft 416 kts 281°
2026-04-20 15:41 46.06027 14.95491 33994 ft 417 kts 280°
2026-04-20 15:41 46.06958 14.87236 33992 ft 417 kts 280°
2026-04-20 15:42 46.07884 14.78978 33976 ft 418 kts 280°
2026-04-20 15:42 46.08805 14.70699 33981 ft 419 kts 280°
2026-04-20 15:43 46.09718 14.62445 33989 ft 420 kts 280°
2026-04-20 15:43 46.10634 14.54106 33993 ft 421 kts 280°
2026-04-20 15:44 46.11543 14.45764 33992 ft 421 kts 280°
2026-04-20 15:44 46.12448 14.37412 33987 ft 421 kts 280°
2026-04-20 15:45 46.13340 14.29112 33994 ft 422 kts 280°
2026-04-20 15:45 46.14234 14.20732 33977 ft 422 kts 280°
2026-04-20 15:46 46.15123 14.12350 33970 ft 423 kts 280°
2026-04-20 15:46 46.16005 14.03968 33952 ft 422 kts 280°
2026-04-20 15:47 46.16879 13.95592 33953 ft 422 kts 280°
2026-04-20 15:47 46.17747 13.87229 33963 ft 421 kts 280°
2026-04-20 15:48 46.18606 13.78874 33957 ft 420 kts 280°
2026-04-20 15:48 46.19455 13.70579 33953 ft 420 kts 279°
2026-04-20 15:49 46.20301 13.62232 33937 ft 420 kts 279°
2026-04-20 15:49 46.21144 13.53878 33943 ft 420 kts 279°
2026-04-20 15:50 46.22249 13.45601 33962 ft 420 kts 286°
2026-04-20 15:50 46.24153 13.37619 33942 ft 420 kts 290°
2026-04-20 15:51 46.26119 13.29685 33940 ft 419 kts 289°
2026-04-20 15:51 46.28067 13.21742 33950 ft 419 kts 289°
2026-04-20 15:52 46.30006 13.13785 33962 ft 420 kts 289°
2026-04-20 15:52 46.31941 13.05805 33954 ft 420 kts 289°
2026-04-20 15:53 46.34823 12.93878 33970 ft 420 kts 289°
2026-04-20 15:53 46.36747 12.85880 33926 ft 421 kts 289°
2026-04-20 15:54 46.38668 12.77862 33933 ft 422 kts 288°
2026-04-20 15:54 46.40586 12.69826 33936 ft 422 kts 289°
2026-04-20 15:55 46.42502 12.61772 33920 ft 423 kts 289°
2026-04-20 15:55 46.44414 12.53705 33915 ft 422 kts 288°
2026-04-20 15:56 46.46317 12.45643 33892 ft 423 kts 288°
2026-04-20 15:56 46.48214 12.37581 33934 ft 421 kts 288°
2026-04-20 15:57 46.50088 12.29585 33900 ft 420 kts 288°
2026-04-20 15:57 46.51969 12.21539 33924 ft 422 kts 288°
2026-04-20 15:58 46.53849 12.13453 33872 ft 424 kts 288°
2026-04-20 15:58 46.55728 12.05332 33869 ft 422 kts 288°
2026-04-20 15:59 46.57597 11.97244 33854 ft 423 kts 288°
2026-04-20 15:59 46.59468 11.89126 33870 ft 424 kts 288°
2026-04-20 16:00 46.61332 11.80989 33891 ft 424 kts 288°
2026-04-20 16:00 46.63192 11.72843 33878 ft 425 kts 288°
2026-04-20 16:01 46.65041 11.64715 33859 ft 425 kts 288°
2026-04-20 16:01 46.66893 11.56544 33875 ft 425 kts 288°
2026-04-20 16:02 46.69420 11.48829 33882 ft 425 kts 303°
2026-04-20 16:02 46.73384 11.42394 33873 ft 432 kts 318°
2026-04-20 16:03 46.78290 11.37300 33886 ft 433 kts 321°
2026-04-20 16:03 46.83205 11.32215 33944 ft 434 kts 320°
2026-04-20 16:04 46.88117 11.27019 33942 ft 437 kts 321°
2026-04-20 16:04 46.93242 11.22120 33951 ft 442 kts 323°
2026-04-20 16:05 46.98436 11.17372 33985 ft 443 kts 323°
2026-04-20 16:05 47.03670 11.12547 33973 ft 444 kts 323°
2026-04-20 16:06 47.08875 11.07668 33988 ft 443 kts 321°
2026-04-20 16:06 47.13677 11.02087 34012 ft 439 kts 317°
2026-04-20 16:07 47.18388 10.96396 34004 ft 437 kts 317°
2026-04-20 16:07 47.23064 10.90774 34021 ft 436 kts 317°
2026-04-20 16:08 47.27768 10.85124 34028 ft 435 kts 317°
2026-04-20 16:08 47.32454 10.79484 34035 ft 434 kts 317°
2026-04-20 16:09 47.37120 10.73856 34039 ft 433 kts 317°
2026-04-20 16:09 47.41960 10.68523 34048 ft 434 kts 322°
2026-04-20 16:10 47.46962 10.63489 34049 ft 435 kts 322°
2026-04-20 16:10 47.51961 10.58408 34054 ft 436 kts 322°
2026-04-20 16:11 47.56918 10.53329 34057 ft 435 kts 322°
2026-04-20 16:11 47.61871 10.48211 34051 ft 433 kts 321°
2026-04-20 16:12 47.66799 10.43104 34041 ft 430 kts 321°
2026-04-20 16:12 47.71702 10.38017 34045 ft 429 kts 321°
2026-04-20 16:13 47.76499 10.32770 34081 ft 426 kts 318°
2026-04-20 16:13 47.81092 10.27174 34048 ft 425 kts 317°
2026-04-20 16:14 47.85619 10.21613 34046 ft 424 kts 317°
2026-04-20 16:14 47.90172 10.16030 34042 ft 424 kts 317°
2026-04-20 16:15 47.94733 10.10439 34055 ft 425 kts 317°
2026-04-20 16:15 47.99302 10.04829 34046 ft 425 kts 317°
2026-04-20 16:16 48.03873 9.99202 34055 ft 426 kts 317°
2026-04-20 16:16 48.08445 9.93561 34052 ft 426 kts 317°
2026-04-20 16:17 48.13018 9.87905 34049 ft 427 kts 317°
2026-04-20 16:17 48.17557 9.82277 34037 ft 427 kts 317°
2026-04-20 16:18 48.22140 9.76582 34047 ft 427 kts 317°
2026-04-20 16:18 48.26709 9.70889 34063 ft 427 kts 317°
2026-04-20 16:19 48.31265 9.65201 34045 ft 425 kts 317°
2026-04-20 16:19 48.35786 9.59520 34068 ft 422 kts 316°
2026-04-20 16:20 48.40219 9.53823 34066 ft 421 kts 316°
2026-04-20 16:20 48.44668 9.48081 34070 ft 420 kts 316°
2026-04-20 16:21 48.49116 9.42338 34070 ft 421 kts 316°
2026-04-20 16:21 48.53572 9.36576 34079 ft 422 kts 316°
2026-04-20 16:22 48.57280 9.31773 34075 ft 423 kts 316°
2026-04-20 16:22 48.61696 9.25898 34081 ft 422 kts 313°
2026-04-20 16:23 48.65573 9.19264 34084 ft 420 kts 308°
2026-04-20 16:23 48.69347 9.12486 34065 ft 421 kts 308°
2026-04-20 16:24 48.73136 9.05706 34105 ft 422 kts 308°
2026-04-20 16:24 48.76937 8.98899 34087 ft 423 kts 308°
2026-04-20 16:25 48.80713 8.92120 34080 ft 423 kts 308°
2026-04-20 16:25 48.84509 8.85288 34084 ft 423 kts 308°
2026-04-20 16:26 48.88297 8.78454 34090 ft 422 kts 308°
2026-04-20 16:26 48.92068 8.71606 34087 ft 421 kts 307°
2026-04-20 16:27 48.95820 8.64762 34092 ft 421 kts 307°
2026-04-20 16:27 48.99565 8.57924 34092 ft 420 kts 307°
2026-04-20 16:28 49.03370 8.51166 34092 ft 420 kts 308°
2026-04-20 16:28 49.07203 8.44439 34092 ft 420 kts 308°
2026-04-20 16:29 49.11025 8.37702 34094 ft 419 kts 308°
2026-04-20 16:29 49.14810 8.30994 34098 ft 419 kts 308°
2026-04-20 16:30 49.18614 8.24227 34100 ft 419 kts 308°
2026-04-20 16:30 49.22414 8.17446 34101 ft 419 kts 308°
2026-04-20 16:31 49.26214 8.10650 34113 ft 421 kts 307°
2026-04-20 16:31 49.30020 8.03825 34111 ft 421 kts 307°
2026-04-20 16:32 49.33799 7.97031 34102 ft 422 kts 307°
2026-04-20 16:32 49.37605 7.90170 34105 ft 423 kts 307°
2026-04-20 16:33 49.41417 7.83283 34107 ft 423 kts 307°
2026-04-20 16:33 49.45229 7.76376 34103 ft 423 kts 307°
2026-04-20 16:34 49.49036 7.69460 34101 ft 423 kts 307°
2026-04-20 16:34 49.52837 7.62536 34098 ft 424 kts 307°
2026-04-20 16:35 49.56610 7.55645 34110 ft 423 kts 307°
2026-04-20 16:35 49.60399 7.48707 34122 ft 423 kts 307°
2026-04-20 16:36 49.64183 7.41761 34115 ft 422 kts 307°
2026-04-20 16:36 49.67955 7.34817 34121 ft 422 kts 307°
2026-04-20 16:37 49.71724 7.27859 34119 ft 422 kts 307°
2026-04-20 16:37 49.75487 7.20895 34126 ft 423 kts 307°
2026-04-20 16:38 49.79235 7.13940 34119 ft 424 kts 307°
2026-04-20 16:38 49.83021 7.06895 34113 ft 425 kts 307°
2026-04-20 16:39 49.86804 6.99837 34122 ft 426 kts 307°
2026-04-20 16:39 49.90590 6.92755 34113 ft 427 kts 307°
2026-04-20 16:40 49.94383 6.85640 34126 ft 427 kts 307°
2026-04-20 16:40 49.98167 6.78523 34120 ft 427 kts 307°
2026-04-20 16:41 50.01959 6.71414 34145 ft 428 kts 308°
2026-04-20 16:41 50.06124 6.64808 34121 ft 431 kts 312°
2026-04-20 16:42 50.10389 6.58247 34116 ft 432 kts 312°
2026-04-20 16:42 50.14649 6.51628 34113 ft 432 kts 312°
2026-04-20 16:43 50.18924 6.45023 34113 ft 433 kts 314°
2026-04-20 16:43 50.23553 6.38964 34122 ft 434 kts 316°
2026-04-20 16:44 50.28222 6.32966 34135 ft 435 kts 317°
2026-04-20 16:44 50.32886 6.26928 34149 ft 435 kts 317°
2026-04-20 16:45 50.37519 6.20896 34153 ft 436 kts 317°
2026-04-20 16:45 50.42188 6.14797 34149 ft 436 kts 316°
2026-04-20 16:46 50.46844 6.08701 34179 ft 436 kts 316°
2026-04-20 16:46 50.51503 6.02581 34162 ft 438 kts 317°
2026-04-20 16:47 50.56183 5.96421 34162 ft 440 kts 317°
2026-04-20 16:47 50.60874 5.90218 34171 ft 439 kts 315°
2026-04-20 16:48 50.64642 5.82780 34183 ft 435 kts 299°
2026-04-20 16:48 50.67018 5.74050 34180 ft 435 kts 285°
2026-04-20 16:49 50.68619 5.64903 34175 ft 436 kts 287°
2026-04-20 16:49 50.70427 5.55768 34183 ft 435 kts 288°
2026-04-20 16:50 50.72275 5.46684 34184 ft 434 kts 288°
2026-04-20 16:50 50.74088 5.37631 34182 ft 432 kts 288°
2026-04-20 16:51 50.75879 5.28581 34206 ft 431 kts 288°
2026-04-20 16:51 50.77681 5.19423 34197 ft 443 kts 288°
2026-04-20 16:52 50.79507 5.10106 34178 ft 442 kts 287°
2026-04-20 16:52 50.81301 5.00887 34177 ft 437 kts 287°
2026-04-20 16:53 50.83054 4.91698 34186 ft 436 kts 287°
2026-04-20 16:53 50.84785 4.82573 34192 ft 436 kts 287°
2026-04-20 16:54 50.86525 4.73371 34196 ft 437 kts 287°
2026-04-20 16:54 50.88269 4.64120 34202 ft 439 kts 287°
2026-04-20 16:55 50.90206 4.54908 34211 ft 443 kts 293°
2026-04-20 16:55 50.93042 4.46208 34216 ft 446 kts 301°
2026-04-20 16:56 50.96309 4.37805 34211 ft 449 kts 301°
2026-04-20 16:56 50.99583 4.29352 34210 ft 450 kts 301°
2026-04-20 16:57 51.02832 4.20869 34205 ft 449 kts 301°
2026-04-20 16:57 51.06064 4.12378 34206 ft 448 kts 301°
2026-04-20 16:58 51.09259 4.03951 34200 ft 446 kts 301°
2026-04-20 16:58 51.12453 3.95504 34204 ft 445 kts 301°
2026-04-20 16:59 51.15504 3.87410 34201 ft 444 kts 301°
2026-04-20 16:59 51.18675 3.78972 34191 ft 443 kts 300°
2026-04-20 17:00 51.23017 3.66012 34218 ft 441 kts 291°
2026-04-20 17:01 51.24857 3.56689 34208 ft 441 kts 283°
2026-04-20 17:01 51.26073 3.47086 34204 ft 441 kts 283°
2026-04-20 17:02 51.27316 3.37498 34218 ft 441 kts 283°
2026-04-20 17:02 51.28567 3.27899 34231 ft 441 kts 283°
2026-04-20 17:03 51.29811 3.18281 34227 ft 443 kts 283°
2026-04-20 17:03 51.31054 3.08601 34238 ft 446 kts 283°
2026-04-20 17:04 51.32295 2.98867 34240 ft 448 kts 283°
2026-04-20 17:04 51.33534 2.89085 34228 ft 450 kts 283°
2026-04-20 17:05 51.34950 2.79313 33317 ft 458 kts 291°
2026-04-20 17:05 51.36190 2.74645 32568 ft 454 kts 296°
2026-04-20 17:05 51.37685 2.70236 31975 ft 447 kts 301°
2026-04-20 17:05 51.39447 2.66170 31352 ft 442 kts 307°
2026-04-20 17:06 51.41331 2.62322 30752 ft 436 kts 307°
2026-04-20 17:06 51.43178 2.58576 30148 ft 431 kts 307°
2026-04-20 17:06 51.45020 2.54825 29470 ft 426 kts 307°
2026-04-20 17:06 51.46837 2.51094 28860 ft 421 kts 307°
2026-04-20 17:07 51.48620 2.47407 28293 ft 416 kts 307°
2026-04-20 17:07 51.50375 2.43761 27715 ft 411 kts 307°
2026-04-20 17:07 51.52112 2.40143 27147 ft 407 kts 307°
2026-04-20 17:07 51.53831 2.36552 26598 ft 402 kts 307°
2026-04-20 17:08 51.55529 2.33002 26074 ft 399 kts 307°
2026-04-20 17:08 51.57213 2.29475 25519 ft 396 kts 307°
2026-04-20 17:08 51.58323 2.27149 25189 ft 395 kts 307°
2026-04-20 17:08 51.59989 2.23654 24682 ft 393 kts 307°
2026-04-20 17:09 51.61647 2.20172 24145 ft 391 kts 307°
2026-04-20 17:09 51.63294 2.16710 23606 ft 389 kts 307°
2026-04-20 17:09 51.64933 2.13258 23014 ft 387 kts 307°
2026-04-20 17:09 51.67290 2.09013 22329 ft 382 kts 317°
2026-04-20 17:10 51.68658 2.07158 22034 ft 379 kts 321°
2026-04-20 17:10 51.70802 2.04713 21617 ft 376 kts 328°
2026-04-20 17:10 51.73094 2.02702 21192 ft 374 kts 331°
2026-04-20 17:10 51.75411 2.00771 20790 ft 375 kts 332°
2026-04-20 17:11 51.77734 1.98829 20371 ft 376 kts 331°
2026-04-20 17:11 51.80053 1.96873 19957 ft 375 kts 332°
2026-04-20 17:11 51.82356 1.94914 19537 ft 373 kts 331°
2026-04-20 17:11 51.84648 1.92955 19123 ft 372 kts 331°
2026-04-20 17:12 51.86907 1.90971 18701 ft 365 kts 327°
2026-04-20 17:12 51.88746 1.88267 18263 ft 363 kts 307°
2026-04-20 17:12 51.89988 1.84748 17942 ft 360 kts 294°
2026-04-20 17:12 51.90644 1.80852 17617 ft 360 kts 281°
2026-04-20 17:13 51.91037 1.76824 17331 ft 365 kts 280°
2026-04-20 17:13 51.91403 1.72744 17012 ft 367 kts 279°
2026-04-20 17:13 51.91762 1.68665 16681 ft 365 kts 281°
2026-04-20 17:13 51.92124 1.64612 16374 ft 362 kts 281°
2026-04-20 17:14 51.92489 1.60596 16058 ft 358 kts 281°
2026-04-20 17:14 51.92855 1.56630 15748 ft 355 kts 281°
2026-04-20 17:14 51.93221 1.52691 15458 ft 353 kts 281°
2026-04-20 17:14 51.93592 1.48740 15155 ft 356 kts 281°
2026-04-20 17:15 51.93965 1.44769 14845 ft 357 kts 280°
2026-04-20 17:15 51.94337 1.40791 14541 ft 357 kts 281°
2026-04-20 17:15 51.94709 1.36804 14239 ft 358 kts 281°
2026-04-20 17:15 51.95082 1.32804 13910 ft 357 kts 281°
2026-04-20 17:16 51.95448 1.28841 13579 ft 353 kts 281°
2026-04-20 17:16 51.95810 1.24918 13257 ft 350 kts 281°
2026-04-20 17:16 51.96161 1.21081 12968 ft 347 kts 281°
2026-04-20 17:16 51.96516 1.17212 12669 ft 346 kts 280°
2026-04-20 17:17 51.96868 1.13362 12370 ft 344 kts 281°
2026-04-20 17:17 51.97217 1.09525 12081 ft 343 kts 280°
2026-04-20 17:17 51.97563 1.05709 11811 ft 340 kts 280°
2026-04-20 17:17 51.97901 1.01949 11504 ft 333 kts 280°
2026-04-20 17:18 51.98232 0.98268 11215 ft 326 kts 281°
2026-04-20 17:18 51.98555 0.94666 10924 ft 319 kts 280°
2026-04-20 17:18 51.98870 0.91144 10652 ft 312 kts 281°
2026-04-20 17:18 51.99173 0.87734 10373 ft 297 kts 281°
2026-04-20 17:19 51.99457 0.84511 10125 ft 283 kts 281°
2026-04-20 17:19 51.99734 0.81388 9876 ft 276 kts 281°
2026-04-20 17:19 52.00003 0.78339 9619 ft 270 kts 281°
2026-04-20 17:19 52.00265 0.75381 9415 ft 267 kts 282°
2026-04-20 17:20 52.00526 0.72420 9329 ft 263 kts 281°
2026-04-20 17:20 52.00785 0.69477 9274 ft 265 kts 281°
2026-04-20 17:20 52.01045 0.66501 9281 ft 268 kts 282°
2026-04-20 17:20 52.01305 0.63507 9265 ft 266 kts 281°
2026-04-20 17:21 52.01409 0.60571 9113 ft 260 kts 267°
2026-04-20 17:21 52.01136 0.57704 8974 ft 253 kts 262°
2026-04-20 17:21 52.00784 0.54927 8751 ft 250 kts 261°
2026-04-20 17:21 52.00426 0.52188 8522 ft 247 kts 261°
2026-04-20 17:22 52.00070 0.49465 8257 ft 246 kts 261°
2026-04-20 17:22 51.99711 0.46754 7984 ft 245 kts 261°
2026-04-20 17:22 51.99363 0.44057 7710 ft 244 kts 262°
2026-04-20 17:22 51.99011 0.41364 7410 ft 244 kts 261°
2026-04-20 17:23 51.98647 0.38709 7325 ft 238 kts 261°
2026-04-20 17:23 51.98295 0.36088 7277 ft 239 kts 261°
2026-04-20 17:23 51.97949 0.33433 7276 ft 242 kts 260°
2026-04-20 17:23 51.97596 0.30743 7284 ft 244 kts 261°
2026-04-20 17:24 51.97260 0.28043 7274 ft 243 kts 261°
2026-04-20 17:24 51.96922 0.25389 7046 ft 243 kts 262°
2026-04-20 17:24 51.96565 0.22730 6769 ft 238 kts 261°
2026-04-20 17:24 51.96204 0.20114 6274 ft 239 kts 255°
2026-04-20 17:25 51.95351 0.17774 5661 ft 246 kts 228°
2026-04-20 17:25 51.94124 0.15798 5144 ft 249 kts 226°
2026-04-20 17:25 51.92890 0.13821 4679 ft 250 kts 226°
2026-04-20 17:25 51.91666 0.11837 4336 ft 246 kts 226°
2026-04-20 17:26 51.90462 0.09882 3974 ft 245 kts 226°
2026-04-20 17:26 51.89256 0.07930 4010 ft 247 kts 226°
2026-04-20 17:26 51.88037 0.05955 3963 ft 248 kts 226°
2026-04-20 17:26 51.86823 0.03993 3968 ft 245 kts 226°
2026-04-20 17:27 51.85620 0.02044 3954 ft 245 kts 226°
2026-04-20 17:27 51.84417 0.00089 3861 ft 245 kts 225°
2026-04-20 17:27 51.83197 -0.01812 3735 ft 242 kts 216°
2026-04-20 17:27 51.81686 -0.02831 3569 ft 237 kts 181°
2026-04-20 17:28 51.80139 -0.02397 3577 ft 219 kts 147°
2026-04-20 17:28 51.79028 -0.00864 3519 ft 207 kts 121°
2026-04-20 17:28 51.78572 0.01233 3312 ft 196 kts 86°
2026-04-20 17:28 51.78676 0.03354 3271 ft 184 kts 81°
2026-04-20 17:29 51.78801 0.05332 3161 ft 174 kts 81°
2026-04-20 17:29 51.78918 0.07255 2942 ft 168 kts 81°
2026-04-20 17:29 51.79292 0.08936 2705 ft 153 kts 52°
2026-04-20 17:29 51.79960 0.10221 2522 ft 149 kts 49°
2026-04-20 17:30 51.80637 0.11487 2339 ft 148 kts 49°
2026-04-20 17:30 51.81333 0.12705 2120 ft 145 kts 44°
2026-04-20 17:30 51.82049 0.13815 1906 ft 138 kts 42°
2026-04-20 17:30 51.82738 0.14853 1738 ft 137 kts 42°
2026-04-20 17:31 51.83451 0.15920 1556 ft 142 kts 42°
2026-04-20 17:31 51.84174 0.17003 1354 ft 139 kts 41°
2026-04-20 17:31 51.84860 0.18032 1155 ft 134 kts 43°
2026-04-20 17:31 51.85587 0.19120 953 ft 143 kts 42°
2026-04-20 17:32 51.86309 0.20202 752 ft 142 kts 42°
2026-04-20 17:32 51.87049 0.21301 568 ft 146 kts 41°
2026-04-20 17:32 51.87788 0.22424 377 ft 143 kts 41°
2026-04-20 17:32 51.88463 0.23421 355 ft 118 kts 43°
2026-04-20 17:33 51.88931 0.24124 361 ft 65 kts 43°
2026-04-20 17:33 51.89175 0.24490 363 ft 29 kts 43°
2026-04-20 17:33 51.89246 0.24633 362 ft 16 kts 74°
2026-04-20 17:33 51.89209 0.24793 361 ft 16 kts 131°
2026-04-20 17:34 51.89135 0.24876 363 ft 13 kts 183°
2026-04-20 17:34 51.89041 0.24839 365 ft 16 kts 162°
2026-04-20 17:34 51.88944 0.24961 362 ft 20 kts 135°
2026-04-20 17:34 51.88853 0.25117 361 ft 19 kts 133°
2026-04-20 17:35 51.88794 0.25196 363 ft 9 kts 171°
2026-04-20 17:35 51.88744 0.25152 366 ft 7 kts 221°
2026-04-20 17:35 51.88742 0.25149 366 ft 0 kts 222°
2026-04-20 17:36 51.88740 0.25146 357 ft 0 kts 223°